TimeAKDT,TemperatureF,Dew PointF,Humidity,Sea Level PressureIn,VisibilityMPH,Wind Direction,Wind SpeedMPH,Gust SpeedMPH,PrecipitationIn,Events,Conditions,WindDirDegrees,DateUTC
12:18 AM,46.4,44.6,93,30.18,9.0,Calm,Calm,-,N/A,,Overcast,0,2012-10-09 08:18:00
12:27 AM,46.4,44.6,93,30.18,9.0,Calm,Calm,-,N/A,,Overcast,0,2012-10-09 08:27:00
12:38 AM,46.4,44.6,93,30.18,6.0,Calm,Calm,-,N/A,,Overcast,0,2012-10-09 08:38:00
12:53 AM,46.9,44.1,90,30.18,10.0,Calm,Calm,-,N/A,,Overcast,0,2012-10-09 08:53:00
1:53 AM,46.9,44.1,90,30.17,10.0,Calm,Calm,-,N/A,,Overcast,0,2012-10-09 09:53:00
2:53 AM,46.9,43.0,86,30.17,10.0,Calm,Calm,-,N/A,,Overcast,0,2012-10-09 10:53:00
3:53 AM,45.0,42.1,90,30.17,10.0,Calm,Calm,-,N/A,,Overcast,0,2012-10-09 11:53:00
4:53 AM,46.0,43.0,89,30.16,10.0,Calm,Calm,-,N/A,,Overcast,0,2012-10-09 12:53:00
5:53 AM,46.0,42.1,86,30.15,10.0,Calm,Calm,-,N/A,,Overcast,0,2012-10-09 13:53:00
6:53 AM,46.0,43.0,89,30.15,10.0,NE,3.5,-,N/A,,Overcast,40,2012-10-09 14:53:00
7:02 AM,46.4,42.8,87,30.15,10.0,NE,3.5,-,N/A,,Overcast,40,2012-10-09 15:02:00
7:53 AM,46.0,43.0,89,30.14,10.0,Calm,Calm,-,N/A,,Overcast,0,2012-10-09 15:53:00
8:53 AM,46.0,42.1,86,30.14,10.0,North,3.5,-,N/A,,Overcast,360,2012-10-09 16:53:00
9:53 AM,45.0,42.1,90,30.14,10.0,North,9.2,-,N/A,,Overcast,360,2012-10-09 17:53:00
10:53 AM,45.0,41.0,86,30.14,10.0,North,10.4,-,N/A,,Mostly Cloudy,10,2012-10-09 18:53:00
11:11 AM,44.6,41.0,87,30.14,10.0,North,9.2,-,N/A,,Scattered Clouds,10,2012-10-09 19:11:00
11:26 AM,44.6,42.8,93,30.14,10.0,North,9.2,-,N/A,,Mostly Cloudy,10,2012-10-09 19:26:00
11:53 AM,46.0,42.1,86,30.14,10.0,North,4.6,-,N/A,,Overcast,10,2012-10-09 19:53:00
12:53 PM,46.9,42.1,83,30.14,10.0,NNE,3.5,-,N/A,,Overcast,30,2012-10-09 20:53:00
1:53 PM,46.9,42.1,83,30.14,10.0,NNE,6.9,-,N/A,,Overcast,20,2012-10-09 21:53:00
2:53 PM,48.0,43.0,83,30.14,10.0,NNE,4.6,-,N/A,,Overcast,30,2012-10-09 22:53:00
3:36 PM,48.2,42.8,82,30.13,10.0,Calm,Calm,-,N/A,,Overcast,0,2012-10-09 23:36:00
3:53 PM,48.0,42.1,80,30.12,10.0,Calm,Calm,-,N/A,,Overcast,0,2012-10-09 23:53:00
4:26 PM,48.2,42.8,82,30.12,10.0,Calm,Calm,-,N/A,,Overcast,0,2012-10-10 00:26:00
4:53 PM,48.0,43.0,83,30.11,10.0,NNE,3.5,-,N/A,,Overcast,20,2012-10-10 00:53:00
5:53 PM,46.9,43.0,86,30.11,10.0,Calm,Calm,-,N/A,,Overcast,0,2012-10-10 01:53:00
6:53 PM,46.0,43.0,89,30.10,10.0,Calm,Calm,-,N/A,,Overcast,0,2012-10-10 02:53:00
7:53 PM,45.0,42.1,90,30.10,10.0,Calm,Calm,-,N/A,,Overcast,0,2012-10-10 03:53:00
8:53 PM,44.1,41.0,89,30.09,10.0,Calm,Calm,-,N/A,,Overcast,0,2012-10-10 04:53:00
9:53 PM,45.0,42.1,90,30.09,10.0,Calm,Calm,-,N/A,,Overcast,0,2012-10-10 05:53:00
10:53 PM,45.0,42.1,90,30.09,10.0,Calm,Calm,-,N/A,,Overcast,0,2012-10-10 06:53:00
11:53 PM,45.0,42.1,90,30.08,10.0,Calm,Calm,-,N/A,,Overcast,0,2012-10-10 07:53:00